DateTimeUTC,F1_A11,F1_S11,BsB_S11,BsG_S11,BsR_S11,BbsB_S11,BbsG_S11,BbsR_S11,BaB_A11,BaG_A11,BaR_A11,Tu_S11,T_S11,Uu_S11,U_S11,P_S11,T1_A11
2021-07-25T06:00:00Z,00000200,20000000,,,,,,,0000.23,0000.01,-000.08,18.3,25.1,07.3,04.8,0668.6,31.1
2021-07-25T06:01:00Z,00000200,20000000,,,,,,,-000.28,-000.23,-000.27,18.3,25.1,07.0,04.6,0668.6,31.1
2021-07-25T06:02:00Z,00000200,20000000,,,,,,,-000.00,0000.18,-000.00,18.3,25.1,07.0,04.6,0668.6,31.1
2021-07-25T06:03:00Z,00000200,60000000,,,,,,,0000.20,0000.13,0000.07,18.3,25.2,07.0,04.6,0668.6,31.1
2021-07-25T06:04:00Z,00000200,40000000,0000.62,0000.19,0000.13,0000.10,0000.06,0000.12,0000.24,-000.02,0000.40,18.6,25.1,07.1,04.8,0669.6,31.1
2021-07-25T06:05:00Z,00000200,00000000,0000.19,-000.27,-000.15,0000.42,-000.09,-000.32,-000.10,-000.12,-000.34,18.7,25.0,07.2,04.9,0669.7,31.1
2021-07-25T06:06:00Z,00000200,00000000,-000.46,-000.41,0000.30,0000.03,0000.07,-000.21,-000.11,0000.52,0000.08,18.6,25.0,07.1,04.8,0669.7,31.1
2021-07-25T06:07:00Z,00000200,00000000,0000.01,-000.34,0000.35,-000.13,0000.05,0000.07,0000.53,-000.16,0000.22,18.6,25.0,07.1,04.8,0669.6,31.1
2021-07-25T06:08:00Z,00000200,00000000,0000.13,0000.33,0000.46,-000.17,0000.29,0000.35,-000.40,0000.01,0000.01,18.6,24.9,07.3,05.0,0669.7,31.0
2021-07-25T06:09:00Z,00000200,00000000,-000.06,-000.09,-000.11,0000.20,-000.01,0000.02,0000.48,0000.15,0000.19,18.6,24.9,07.4,05.0,0669.7,31.0
2021-07-25T06:10:00Z,00000200,00000000,0000.21,-000.28,0000.07,0000.00,0000.39,0000.30,0000.09,0000.23,-000.06,18.5,24.9,07.5,05.1,0669.7,31.0
2021-07-25T06:11:00Z,00000200,00000000,-000.08,0000.14,0000.25,-000.07,-000.12,0000.22,-000.14,-000.06,0000.10,18.5,24.9,07.6,05.1,0669.6,31.0
2021-07-25T06:12:00Z,00000200,00000000,0000.38,0000.18,0000.45,-000.49,0000.00,0000.32,0000.10,0000.10,0000.35,18.5,24.9,07.6,05.1,0669.7,31.0
2021-07-25T06:13:00Z,00000200,00000000,-000.16,-000.04,0000.02,0000.20,-000.03,0000.12,0000.42,0000.49,-000.29,18.5,24.9,07.8,05.3,0669.7,31.0
2021-07-25T06:14:00Z,00000200,00000000,0000.19,0000.06,-000.12,-000.12,0000.23,0000.11,0000.38,-000.19,0000.32,18.5,24.9,07.9,05.3,0669.7,31.0
2021-07-25T06:15:00Z,00000200,00000000,0000.42,-000.20,0000.17,0000.21,-000.09,0000.02,-000.14,0000.39,0000.25,18.5,24.9,07.8,05.3,0669.7,31.0
2021-07-25T06:16:00Z,00000200,00000000,-000.16,-000.09,0000.14,-000.22,0000.31,0000.38,0000.15,0000.06,0000.46,18.6,24.9,07.8,05.3,0669.7,31.1
2021-07-25T06:17:00Z,00000200,00000000,0000.15,-000.14,-000.09,0000.47,0000.02,0000.14,0000.04,0000.25,-000.19,18.7,24.9,07.8,05.3,0669.7,31.1
2021-07-25T06:18:00Z,00000200,00000000,-000.05,-000.32,-000.17,-000.45,0000.34,0000.17,0000.26,0000.03,-000.03,18.7,25.0,07.8,05.3,0669.7,31.1
2021-07-25T06:19:00Z,00000200,00000000,-000.11,0000.02,0000.18,0000.28,0000.12,-000.05,-000.02,-000.23,0000.20,18.7,25.0,07.8,05.3,0669.7,31.1
2021-07-25T06:20:00Z,00000200,00000000,0000.10,-000.27,0000.03,-000.04,0000.27,0000.07,0000.04,0000.28,-000.15,18.7,25.0,07.9,05.4,0669.7,31.1
2021-07-25T06:21:00Z,00000200,00000000,-000.75,0000.05,0000.01,0000.14,0000.18,0000.17,-000.06,-000.02,0000.16,18.7,25.0,08.0,05.4,0669.7,31.1
2021-07-25T06:22:00Z,00000200,00000000,0000.78,0000.09,0000.36,0000.32,0000.26,0000.14,0000.26,0000.26,0000.16,18.7,25.0,08.0,05.5,0669.8,31.1
2021-07-25T06:23:00Z,00000200,00000000,0000.01,-000.04,0000.04,-000.03,0000.19,0000.36,0000.01,0000.28,-000.04,18.7,24.9,08.0,05.4,0669.8,31.0
2021-07-25T06:24:00Z,00000200,00000000,0000.67,-000.00,0000.06,-000.05,0000.11,0000.08,0000.13,-000.32,0000.07,18.6,24.9,08.0,05.5,0669.8,31.0
2021-07-25T06:25:00Z,00000200,00000000,-000.22,-000.04,-000.16,0000.45,0000.09,0000.17,-000.15,0000.33,0000.25,18.6,24.9,08.1,05.5,0669.8,31.0
2021-07-25T06:26:00Z,00000200,00000000,0000.34,0000.01,0000.06,-000.07,0000.40,0000.24,0000.43,0000.01,-000.08,18.6,24.9,08.3,05.7,0669.8,31.1
2021-07-25T06:27:00Z,00000200,00000000,0000.43,0000.06,0000.05,0000.10,0000.25,0000.15,-000.13,-000.32,-000.15,18.6,24.9,08.3,05.7,0669.8,31.0
2021-07-25T06:28:00Z,00000200,00000000,-000.78,-000.07,-000.09,0000.19,0000.05,0000.11,-000.09,0000.39,0000.25,18.6,24.9,08.4,05.7,0669.8,31.0
2021-07-25T06:29:00Z,00000200,00000000,0000.17,0000.17,-000.29,-000.38,0000.18,-000.13,0000.59,0000.04,-000.01,18.6,24.9,08.3,05.7,0669.8,31.0
2021-07-25T06:30:00Z,00000200,00000000,-000.55,-000.22,-000.07,0000.03,-000.01,-000.32,-000.28,0000.01,0000.14,18.6,24.9,08.2,05.6,0669.9,31.0
2021-07-25T06:31:00Z,00000200,00000000,0000.60,0000.11,0000.24,-000.03,0000.32,0000.40,0000.20,0000.03,-000.11,18.7,24.9,08.2,05.6,0669.9,31.1
2021-07-25T06:32:00Z,00000200,00000000,0000.71,-000.26,-000.29,0000.14,0000.38,-000.04,-000.06,0000.04,0000.00,18.7,24.9,08.2,05.6,0669.9,31.1
2021-07-25T06:33:00Z,00000200,00000000,0000.05,-000.12,0000.20,0000.06,0000.08,0000.11,0000.19,0000.02,0000.12,18.7,25.0,08.2,05.6,0669.9,31.1
2021-07-25T06:34:00Z,00000200,00000000,0000.03,0000.06,-000.09,-000.03,0000.25,0000.17,-000.19,0000.14,-000.10,18.7,25.0,08.3,05.7,0669.9,31.1
2021-07-25T06:35:00Z,00000200,00000000,-000.05,-000.13,-000.09,0000.35,-000.16,-000.05,-000.28,0000.02,0000.16,18.7,25.0,08.1,05.6,0669.9,31.1
2021-07-25T06:36:00Z,00000200,00000000,0000.10,0000.08,0000.20,0000.21,0000.05,0000.27,0000.03,0000.11,-000.24,18.7,25.0,08.1,05.5,0669.9,31.1
2021-07-25T06:37:00Z,00000200,00000000,-000.67,-000.26,-000.22,0000.08,0000.06,-000.03,0000.30,-000.59,0000.11,18.7,24.9,08.2,05.6,0669.9,31.0
2021-07-25T06:38:00Z,00000200,00000000,-000.02,-000.43,-000.12,0000.15,0000.18,-000.10,-000.09,0000.13,-000.07,18.7,24.9,08.1,05.6,0669.9,31.0
2021-07-25T06:39:00Z,00000200,00000000,-000.30,0000.10,0000.30,0000.18,-000.14,0000.44,0000.10,0000.14,0000.16,18.6,24.9,08.1,05.5,0669.9,31.0
2021-07-25T06:40:00Z,00000200,00000000,0000.44,-000.04,0000.17,-000.50,0000.26,-000.02,-000.20,-000.02,-000.18,18.6,24.9,08.2,05.6,0669.9,31.0
2021-07-25T06:41:00Z,00000200,00000000,0000.54,-000.38,0000.11,0000.21,0000.16,0000.05,0000.07,-000.15,0000.20,18.6,24.9,08.2,05.6,0669.9,31.0
2021-07-25T06:42:00Z,00000200,00000000,0000.24,-000.10,0000.23,0000.36,0000.39,-000.03,0000.10,0000.27,0000.10,18.6,24.9,08.3,05.7,0669.9,31.1
2021-07-25T06:43:00Z,00000200,00000000,0000.18,-000.48,0000.06,0000.34,0000.21,0000.15,0000.02,0000.01,-000.06,18.6,24.9,08.4,05.7,0670.0,31.0
2021-07-25T06:44:00Z,00000200,00000000,0000.17,-000.22,-000.00,0000.91,0000.07,0000.14,0000.28,0000.74,0000.36,18.6,24.8,08.3,05.7,0670.0,31.0
2021-07-25T06:45:00Z,00000200,00000000,0000.01,-000.23,-000.36,0000.18,0000.06,0000.07,0000.38,-000.34,0000.04,18.6,24.8,08.4,05.7,0670.0,31.0
2021-07-25T06:46:00Z,00000200,00000000,0000.32,0000.11,0000.18,-000.46,0000.31,0000.30,-000.25,0000.06,-000.09,18.7,24.9,08.4,05.8,0670.0,31.1
2021-07-25T06:47:00Z,00000200,00000000,-000.23,-000.22,0000.03,0000.18,0000.01,-000.26,0000.16,0000.10,-000.05,18.7,24.9,08.5,05.8,0670.0,31.1
2021-07-25T06:48:00Z,00000200,00000000,0000.33,-000.04,0000.13,-000.23,0000.29,0000.18,0000.05,0000.09,0000.40,18.7,24.9,08.5,05.8,0670.1,31.1
2021-07-25T06:49:00Z,00000200,00000000,-000.00,-000.22,0000.03,-000.20,0000.07,-000.27,-000.08,-000.10,-000.17,18.7,24.9,08.5,05.8,0670.1,31.1
2021-07-25T06:50:00Z,00000200,00000000,0000.34,0000.21,-000.17,0000.53,0000.22,0000.28,-000.01,-000.23,-000.31,18.7,24.9,08.5,05.8,0670.1,31.1
2021-07-25T06:51:00Z,00000200,00000000,0000.88,-000.01,0000.19,0000.06,0000.20,0000.50,-000.11,0000.20,0000.12,18.7,24.9,08.5,05.8,0670.1,31.0
2021-07-25T06:52:00Z,00000200,00000000,0000.07,-000.08,-000.14,0000.20,0000.34,0000.08,-000.16,-000.44,0000.03,18.7,24.9,08.4,05.8,0670.1,31.0
2021-07-25T06:53:00Z,00000200,00000000,-000.11,-000.16,0000.14,0000.24,0000.03,-000.01,0000.33,0000.54,0000.09,18.6,24.9,08.4,05.7,0670.1,31.0
2021-07-25T06:54:00Z,00000200,00000000,-000.07,-000.17,0000.04,0000.05,-000.07,-000.17,-000.25,-000.32,-000.12,18.6,24.9,08.6,05.8,0670.1,31.0
2021-07-25T06:55:00Z,00000200,00000000,0000.20,-000.06,0000.05,0000.51,0000.37,0000.04,0000.31,0000.26,0000.32,18.6,24.8,08.5,05.8,0670.1,31.0
2021-07-25T06:56:00Z,00000200,00000000,-000.16,-000.53,-000.03,0000.20,0000.03,0000.17,-000.23,-000.27,-000.57,18.6,24.8,08.5,05.8,0670.1,31.0
2021-07-25T06:57:00Z,00000200,40000000,,,,,,,-000.24,0000.08,-000.03,18.6,24.9,08.4,05.7,0670.0,31.0
2021-07-25T06:58:00Z,00000200,60000000,,,,,,,0000.04,0000.15,-000.05,18.3,25.0,08.3,05.5,0669.1,31.0
2021-07-25T06:59:00Z,00000200,20000000,,,,,,,0000.11,-000.05,0000.28,18.3,25.1,08.3,05.5,0669.1,31.0
